This demonstration page uses our WeatherBlox Daily Observations layout. Learn more.

Left ArrowRight Arrow

34.74481, -87.66753

Hourly Observations for December 2, 2018

Temp ( °F °C ) Dew Point ( °F °C ) Humidity (%) Winds ( mph kmh ) Pressure ( in mb ) Visibility ( mi km ) Precip ( " mm )
12:53 am 00:53 Clear 56 13.3 53 11.7 90 90 S 5 7 29.64 1004 10 16 0.00 0.00
1:53 am 01:53 Clear 56 13.3 50 10 81 81 S 7 11 29.65 1004 10 16 0.00 0.00
2:53 am 02:53 Clear 54 12.2 48 8.9 80 80 SSW 7 11 29.64 1004 10 16 0.00 0.00
3:53 am 03:53 Clear 54 12.2 47 8.3 77 77 SSW 7 11 29.64 1004 10 16 0.00 0.00
4:53 am 04:53 Clear 51 10.6 45 7.2 80 80 SSW 5 7 29.65 1004 10 16 0.00 0.00
5:53 am 05:53 Clear 52 11.1 45 7.2 77 77 SSW 5 7 29.66 1005 10 16 0.00 0.00
6:53 am 06:53 Sunny 53 11.7 45 7.2 74 74 S 8 13 29.68 1005 10 16 0.00 0.00
7:53 am 07:53 Sunny 56 13.3 45 7.2 67 67 S 13 20 29.69 1006 10 16 0.00 0.00
8:53 am 08:53 Sunny 61 16.1 45 7.2 56 56 SSW 14 22 29.71 1006 10 16 0.00 0.00
9:53 am 09:53 Sunny 64 17.8 44 6.7 48 48 SW 13 20 29.71 1006 10 16 0.00 0.00
10:53 am 10:53 Sunny 67 19.4 44 6.7 44 44 WSW 15 24 29.72 1007 10 16 0.00 0.00
11:53 am 11:53 Sunny 68 20 42 5.6 39 39 WSW 17 28 29.72 1007 10 16 0.00 0.00
12:53 pm 12:53 Sunny 70 21.1 42 5.6 37 37 WSW 14 22 29.71 1006 10 16 0.00 0.00
1:53 pm 13:53 Sunny 70 21.1 38 3.3 31 31 WSW 15 24 29.71 1006 10 16 0.00 0.00
2:53 pm 14:53 Sunny 70 21.1 38 3.3 31 31 W 14 22 29.72 1007 10 16 0.00 0.00
3:53 pm 15:53 Sunny 67 19.4 37 2.8 33 33 WSW 16 26 29.75 1008 10 16 0.00 0.00
4:53 pm 16:53 Clear 62 16.7 38 3.3 41 41 WSW 9 15 29.77 1008 10 16 0.00 0.00
5:53 pm 17:53 Clear 58 14.4 38 3.3 48 48 WSW 7 11 29.79 1009 10 16 0.00 0.00
6:53 pm 18:53 Clear 55 12.8 37 2.8 51 51 SW 6 9 29.81 1010 10 16 0.00 0.00
7:53 pm 19:53 Clear 53 11.7 38 3.3 57 57 WNW 6 9 29.84 1010 10 16 0.00 0.00
8:53 pm 20:53 Clear 54 12.2 37 2.8 53 53 W 9 15 29.86 1011 10 16 0.00 0.00
9:53 pm 21:53 Clear 54 12.2 38 3.3 55 55 WNW 8 13 29.88 1012 10 16 0.00 0.00
10:53 pm 22:53 Clear 51 10.6 39 3.9 64 64 Calm 29.89 1012 10 16 0.00 0.00
11:53 pm 23:53 Clear 52 11.1 38 3.3 59 59 W 5 7 29.90 1012 10 16 0.00 0.00

Powered by AerisWeather